• In Hungary
  • List of Countries
  • For 7 days
  • Water Temperature
  • Satellite Maps
  • Weather Map
  • News
  • Weather Widgets
  • user-avatar
    Login

    Hourly Weather Andora

    Today, 19 November, Sunday

    Time Temperature Precipitation Wind Pressure Humidity
    00:00 -2°C° 0 mm 2 mps 625 mmHg 45%
    01:00 -2°C° 0 mm 2 mps 625 mmHg 43%
    02:00 -2°C° 0 mm 2 mps 625 mmHg 42%
    03:00 -2°C° 0 mm 2 mps 625 mmHg 41%
    04:00 -2°C° 0 mm 2 mps 625 mmHg 40%
    05:00 -2°C° 0 mm 2 mps 625 mmHg 40%
    06:00 -2°C° 0 mm 2 mps 625 mmHg 40%
    07:00 +1°C° 0 mm 2 mps 626 mmHg 37%
    08:00 +3°C° 0 mm 2 mps 627 mmHg 35%
    09:00 +4°C° 0 mm 2 mps 628 mmHg 32%
    10:00 +6°C° 0 mm 2 mps 628 mmHg 32%
    11:00 +7°C° 0 mm 2 mps 628 mmHg 32%
    12:00 +8°C° 0 mm 2 mps 629 mmHg 32%
    13:00 +8°C° 0 mm 2 mps 628 mmHg 37%
    14:00 +7°C° 0 mm 2 mps 628 mmHg 41%
    15:00 +7°C° 0 mm 2 mps 627 mmHg 45%
    16:00 +5°C° 0 mm 2 mps 627 mmHg 51%
    17:00 +3°C° 0 mm 2 mps 626 mmHg 58%
    18:00 +1°C° 0 mm 2 mps 626 mmHg 64%
    19:00 +1°C° 0 mm 2 mps 626 mmHg 64%
    20:00 +1°C° 0 mm 2 mps 626 mmHg 63%
    21:00 -1°C° 0 mm 2 mps 626 mmHg 63%
    22:00 -1°C° 0 mm 2 mps 626 mmHg 62%
    23:00 -1°C° 0 mm 2 mps 626 mmHg 61%

    Tomorrow, 20 November, Monday

    Time Temperature Precipitation Wind Pressure Humidity
    00:00 +1°C° 0 mm 2 mps 626 mmHg 60%
    01:00 +1°C° 0 mm 2 mps 626 mmHg 60%
    02:00 -1°C° 0 mm 2 mps 626 mmHg 60%
    03:00 -1°C° 0 mm 2 mps 626 mmHg 60%
    04:00 -1°C° 0 mm 2 mps 626 mmHg 60%
    05:00 -1°C° 0 mm 2 mps 626 mmHg 61%
    06:00 +1°C° 0 mm 2 mps 626 mmHg 61%
    07:00 +3°C° 0 mm 1 mps 627 mmHg 57%
    08:00 +5°C° 0 mm 1 mps 628 mmHg 53%
    09:00 +7°C° 0 mm 1 mps 629 mmHg 49%
    10:00 +8°C° 0 mm 1 mps 629 mmHg 46%
    11:00 +10°C° 0 mm 1 mps 629 mmHg 42%
    12:00 +11°C° 0 mm 1 mps 630 mmHg 39%
    13:00 +11°C° 0 mm 1 mps 629 mmHg 43%
    14:00 +10°C° 0 mm 1 mps 629 mmHg 46%
    15:00 +9°C° 0 mm 1 mps 628 mmHg 50%
    16:00 +7°C° 0 mm 1 mps 627 mmHg 56%
    17:00 +5°C° 0 mm 1 mps 627 mmHg 62%
    18:00 +3°C° 0 mm 1 mps 626 mmHg 68%
    19:00 +3°C° 0 mm 1 mps 626 mmHg 66%
    20:00 +3°C° 0 mm 1 mps 626 mmHg 64%
    21:00 +3°C° 0 mm 1 mps 626 mmHg 62%
    22:00 +3°C° 0 mm 1 mps 626 mmHg 58%
    23:00 +3°C° 0 mm 1 mps 626 mmHg 55%

    Day after tomorrow, 21 November, Tuesday

    Time Temperature Precipitation Wind Pressure Humidity
    00:00 +3°C° 0 mm 1 mps 626 mmHg 52%
    01:00 +3°C° 0 mm 1 mps 626 mmHg 48%
    02:00 +3°C° 0 mm 1 mps 626 mmHg 45%
    03:00 +2°C° 0 mm 2 mps 625 mmHg 42%
    04:00 +2°C° 0 mm 2 mps 625 mmHg 39%
    05:00 +2°C° 0 mm 2 mps 625 mmHg 37%
    06:00 +2°C° 0 mm 2 mps 625 mmHg 35%
    07:00 +5°C° 0 mm 1 mps 626 mmHg 34%
    08:00 +6°C° 0 mm 1 mps 627 mmHg 33%
    09:00 +7°C° 0 mm 0 mps 628 mmHg 32%
    10:00 +10°C° 0 mm 1 mps 628 mmHg 30%
    11:00 +11°C° 0 mm 1 mps 628 mmHg 29%
    12:00 +13°C° 0 mm 1 mps 629 mmHg 27%
    13:00 +12°C° 0 mm 1 mps 628 mmHg 32%
    14:00 +11°C° 0 mm 1 mps 627 mmHg 36%
    15:00 +11°C° 0 mm 1 mps 627 mmHg 41%
    16:00 +9°C° 0 mm 1 mps 626 mmHg 45%
    17:00 +6°C° 0 mm 1 mps 625 mmHg 50%
    18:00 +4°C° 0 mm 1 mps 624 mmHg 54%
    19:00 +4°C° 0 mm 1 mps 624 mmHg 53%
    20:00 +4°C° 0 mm 1 mps 624 mmHg 52%
    21:00 +4°C° 0 mm 1 mps 624 mmHg 51%
    22:00 +4°C° 0 mm 1 mps 624 mmHg 50%
    23:00 +3°C° 0 mm 1 mps 624 mmHg 49%

    22 November, Wednesday

    Time Temperature Precipitation Wind Pressure Humidity
    00:00 +3°C° 0 mm 1 mps 624 mmHg 48%
    01:00 +3°C° 0 mm 1 mps 624 mmHg 47%
    02:00 +3°C° 0 mm 1 mps 623 mmHg 45%
    03:00 +3°C° 0 mm 1 mps 623 mmHg 44%
    04:00 +3°C° 0 mm 1 mps 623 mmHg 42%
    05:00 +2°C° 0 mm 1 mps 622 mmHg 41%
    06:00 +2°C° 0 mm 1 mps 622 mmHg 39%
    07:00 +4°C° 0 mm 1 mps 623 mmHg 38%
    08:00 +5°C° 0 mm 2 mps 624 mmHg 37%
    09:00 +6°C° 0 mm 2 mps 624 mmHg 36%
    10:00 +8°C° 0 mm 2 mps 625 mmHg 34%
    11:00 +9°C° 0 mm 2 mps 625 mmHg 33%
    12:00 +11°C° 0 mm 3 mps 625 mmHg 32%
    13:00 +10°C° 0 mm 3 mps 624 mmHg 35%
    14:00 +9°C° 0 mm 3 mps 624 mmHg 38%
    15:00 +9°C° 0 mm 3 mps 623 mmHg 41%
    16:00 +7°C° 0 mm 2 mps 623 mmHg 48%
    17:00 +4°C° 0 mm 2 mps 622 mmHg 55%
    18:00 +2°C° 0 mm 2 mps 621 mmHg 62%
    19:00 +2°C° 0 mm 2 mps 621 mmHg 63%
    20:00 +2°C° 0 mm 2 mps 622 mmHg 64%
    21:00 +2°C° 0 mm 2 mps 622 mmHg 65%
    22:00 +2°C° 0 mm 2 mps 622 mmHg 66%
    23:00 +1°C° 0 mm 2 mps 622 mmHg 66%

    23 November, Thursday

    Time Temperature Precipitation Wind Pressure Humidity
    00:00 +1°C° 0 mm 2 mps 622 mmHg 66%
    01:00 +1°C° 0 mm 2 mps 622 mmHg 63%
    02:00 +1°C° 0 mm 2 mps 622 mmHg 61%
    03:00 +1°C° 0 mm 2 mps 622 mmHg 58%
    04:00 +1°C° 0 mm 2 mps 622 mmHg 55%
    05:00 +1°C° 0 mm 2 mps 622 mmHg 52%
    06:00 +3°C° 0 mm 1 mps 623 mmHg 49%
    07:00 +4°C° 0 mm 1 mps 624 mmHg 47%
    08:00 +4°C° 0 mm 2 mps 625 mmHg 46%
    09:00 +6°C° 0 mm 2 mps 626 mmHg 44%
    10:00 +7°C° 0 mm 2 mps 626 mmHg 43%
    11:00 +9°C° 0 mm 2 mps 627 mmHg 43%
    12:00 +10°C° 0 mm 3 mps 627 mmHg 42%
    13:00 +10°C° 0 mm 3 mps 627 mmHg 45%
    14:00 +9°C° 0 mm 3 mps 626 mmHg 48%
    15:00 +9°C° 0 mm 3 mps 626 mmHg 51%
    16:00 +7°C° 0 mm 2 mps 626 mmHg 57%
    17:00 +5°C° 0 mm 2 mps 625 mmHg 63%
    18:00 +3°C° 0 mm 2 mps 625 mmHg 70%
    19:00 +3°C° 0 mm 2 mps 625 mmHg 70%
    20:00 +3°C° 0 mm 2 mps 625 mmHg 71%
    21:00 +3°C° 0 mm 2 mps 625 mmHg 72%
    22:00 +3°C° 0 mm 2 mps 625 mmHg 72%
    23:00 +3°C° 0 mm 2 mps 625 mmHg 71%

    24 November, Friday

    Time Temperature Precipitation Wind Pressure Humidity
    00:00 +3°C° 0 mm 2 mps 625 mmHg 71%
    01:00 +3°C° 0 mm 2 mps 625 mmHg 71%
    02:00 +3°C° 0 mm 2 mps 625 mmHg 70%
    03:00 +3°C° 0 mm 2 mps 625 mmHg 70%
    04:00 +3°C° 0 mm 2 mps 625 mmHg 70%
    05:00 +3°C° 0 mm 2 mps 625 mmHg 70%
    06:00 +2°C° 0 mm 2 mps 625 mmHg 70%
    07:00 +4°C° 0 mm 2 mps 626 mmHg 64%
    08:00 +6°C° 0 mm 2 mps 627 mmHg 59%
    09:00 +7°C° 0 mm 2 mps 628 mmHg 53%
    10:00 +9°C° 0 mm 3 mps 628 mmHg 49%
    11:00 +10°C° 0 mm 3 mps 628 mmHg 44%
    12:00 +11°C° 0 mm 3 mps 628 mmHg 39%
    13:00 +11°C° 0 mm 3 mps 628 mmHg 41%
    14:00 +10°C° 0 mm 3 mps 627 mmHg 43%
    15:00 +10°C° 0 mm 3 mps 627 mmHg 44%
    16:00 +8°C° 0 mm 2 mps 626 mmHg 49%
    17:00 +6°C° 0 mm 2 mps 626 mmHg 53%
    18:00 +4°C° 0 mm 2 mps 625 mmHg 58%
    19:00 +4°C° 0 mm 2 mps 626 mmHg 57%
    20:00 +4°C° 0 mm 2 mps 626 mmHg 57%
    21:00 +4°C° 0 mm 2 mps 626 mmHg 56%
    22:00 +4°C° 0 mm 2 mps 626 mmHg 56%
    23:00 +4°C° 0 mm 2 mps 626 mmHg 55%
    Show more